Year,Month,Day,Hour,Minute,Value (Times are PST for barometer in hPa)
2023,03,28,00,00,937.59
2023,03,28,00,01,937.59
2023,03,28,00,02,937.59
2023,03,28,00,03,937.59
2023,03,28,00,04,937.59
2023,03,28,00,05,937.59
2023,03,28,00,06,937.59
2023,03,28,00,07,937.59
2023,03,28,00,08,937.59
2023,03,28,00,09,937.59
2023,03,28,00,10,937.59
2023,03,28,00,11,937.59
2023,03,28,00,12,937.59
2023,03,28,00,13,937.59
2023,03,28,00,14,937.59
2023,03,28,00,15,941.74
2023,03,28,00,16,958.35
2023,03,28,00,17,958.35
2023,03,28,00,18,958.35
2023,03,28,00,19,958.35
2023,03,28,00,20,958.35
2023,03,28,00,21,958.35
2023,03,28,00,22,958.35
2023,03,28,00,23,958.35
2023,03,28,00,24,958.35
2023,03,28,00,25,959.71
2023,03,28,00,26,965.16
2023,03,28,00,27,965.16
2023,03,28,00,28,965.16
2023,03,28,00,29,965.16
2023,03,28,00,30,965.16
2023,03,28,00,31,965.16
2023,03,28,00,32,965.16
2023,03,28,00,33,965.16
2023,03,28,00,34,965.16
2023,03,28,00,35,965.16
2023,03,28,00,36,965.16
2023,03,28,00,37,965.16
2023,03,28,00,38,965.16
2023,03,28,00,39,965.16
2023,03,28,00,40,965.16
2023,03,28,00,41,965.16
2023,03,28,00,42,965.16
2023,03,28,00,43,965.16
2023,03,28,00,44,965.16
2023,03,28,00,45,965.16
2023,03,28,00,46,965.16
2023,03,28,00,47,965.16
2023,03,28,00,48,965.16
2023,03,28,00,49,965.16
2023,03,28,00,50,965.16
2023,03,28,00,51,965.16
2023,03,28,00,52,965.16
2023,03,28,00,53,965.16
2023,03,28,00,54,965.16
2023,03,28,00,55,965.16
2023,03,28,00,56,965.16
2023,03,28,00,57,965.16
2023,03,28,00,58,961.39
2023,03,28,00,59,946.33
2023,03,28,01,00,946.33
2023,03,28,01,01,946.33
2023,03,28,01,02,946.33
2023,03,28,01,03,945.67
2023,03,28,01,04,941.92
2023,03,28,01,05,941.92
2023,03,28,01,06,941.92
2023,03,28,01,07,941.92
2023,03,28,01,08,941.92
2023,03,28,01,09,941.92
2023,03,28,01,10,941.92
2023,03,28,01,11,941.92
2023,03,28,01,12,941.92
2023,03,28,01,13,941.92
2023,03,28,01,14,941.92
2023,03,28,01,15,941.92
2023,03,28,01,16,941.92
2023,03,28,01,17,941.92
2023,03,28,01,18,941.92
2023,03,28,01,19,941.92
2023,03,28,01,20,941.92
2023,03,28,01,21,941.92
2023,03,28,01,22,941.92
2023,03,28,01,23,941.92
2023,03,28,01,24,941.92
2023,03,28,01,25,941.92
2023,03,28,01,26,941.92
2023,03,28,01,27,941.92
2023,03,28,01,28,941.92
2023,03,28,01,29,941.92
2023,03,28,01,30,943.30
2023,03,28,01,31,948.80
2023,03,28,01,32,948.80
2023,03,28,01,33,952.14
2023,03,28,01,34,965.49
2023,03,28,01,35,965.49
2023,03,28,01,36,965.49
2023,03,28,01,37,965.49
2023,03,28,01,38,965.49
2023,03,28,01,39,965.49
2023,03,28,01,40,965.49
2023,03,28,01,41,965.49
2023,03,28,01,42,965.49
2023,03,28,01,43,965.49
2023,03,28,01,44,965.49
2023,03,28,01,45,965.49
2023,03,28,01,46,965.49
2023,03,28,01,47,965.49
2023,03,28,01,48,965.49
2023,03,28,01,49,965.49
2023,03,28,01,50,965.49
2023,03,28,01,51,965.49
2023,03,28,01,52,965.49
2023,03,28,01,53,965.49
2023,03,28,01,54,968.02
2023,03,28,01,55,978.12
2023,03,28,01,56,978.12
2023,03,28,01,57,978.12
2023,03,28,01,58,978.12
2023,03,28,01,59,978.12
2023,03,28,02,00,978.12
2023,03,28,02,01,977.59
2023,03,28,02,02,974.71
2023,03,28,02,03,974.63
2023,03,28,02,04,974.87
2023,03,28,02,05,974.87
2023,03,28,02,06,974.87
2023,03,28,02,07,974.87
2023,03,28,02,08,974.87
2023,03,28,02,09,974.87
2023,03,28,02,10,974.87
2023,03,28,02,11,974.87
2023,03,28,02,12,974.87
2023,03,28,02,13,974.72
2023,03,28,02,14,973.93
2023,03,28,02,15,974.20
2023,03,28,02,16,974.20
2023,03,28,02,17,974.20
2023,03,28,02,18,974.20
2023,03,28,02,19,974.20
2023,03,28,02,20,974.20
2023,03,28,02,21,974.20
2023,03,28,02,22,974.20
2023,03,28,02,23,974.20
2023,03,28,02,24,974.20
2023,03,28,02,25,974.76
2023,03,28,02,26,977.14
2023,03,28,02,27,977.65
2023,03,28,02,28,977.65
2023,03,28,02,29,977.65
2023,03,28,02,30,977.65
2023,03,28,02,31,977.65
2023,03,28,02,32,977.65
2023,03,28,02,33,977.65
2023,03,28,02,34,978.10
2023,03,28,02,35,979.78
2023,03,28,02,36,979.37
2023,03,28,02,37,979.89
2023,03,28,02,38,979.89
2023,03,28,02,39,979.89
2023,03,28,02,40,979.89
2023,03,28,02,41,979.89
2023,03,28,02,42,979.89
2023,03,28,02,43,979.89
2023,03,28,02,44,981.35
2023,03,28,02,45,987.20
2023,03,28,02,46,987.20
2023,03,28,02,47,987.20
2023,03,28,02,48,987.20
2023,03,28,02,49,987.20
2023,03,28,02,50,987.20
2023,03,28,02,51,986.05
2023,03,28,02,52,979.89
2023,03,28,02,53,979.89
2023,03,28,02,54,979.89
2023,03,28,02,55,979.89
2023,03,28,02,56,979.89
2023,03,28,02,57,979.89
2023,03,28,02,58,979.89
2023,03,28,02,59,979.89
2023,03,28,03,00,979.89
2023,03,28,03,01,979.89
2023,03,28,03,02,979.89
2023,03,28,03,06,979.89
2023,03,28,03,07,979.89
2023,03,28,03,08,979.89
2023,03,28,03,09,976.33
2023,03,28,03,10,969.73
2023,03,28,03,11,969.73
2023,03,28,03,12,969.73
2023,03,28,03,13,969.73
2023,03,28,03,14,969.73
2023,03,28,03,15,969.73
2023,03,28,03,16,969.73
2023,03,28,03,17,969.73
2023,03,28,03,18,969.73
2023,03,28,03,19,969.73
2023,03,28,03,20,969.73
2023,03,28,03,21,969.73
2023,03,28,03,22,969.73
2023,03,28,03,23,969.73
2023,03,28,03,24,969.73
2023,03,28,03,25,969.73
2023,03,28,03,26,969.70
2023,03,28,03,27,969.63
2023,03,28,03,28,969.63
2023,03,28,03,29,969.63
2023,03,28,03,30,969.63
2023,03,28,03,31,973.16
2023,03,28,03,32,980.80
2023,03,28,03,33,980.80
2023,03,28,03,34,980.80
2023,03,28,03,35,980.80
2023,03,28,03,36,980.80
2023,03,28,03,37,980.80
2023,03,28,03,38,980.80
2023,03,28,03,39,980.80
2023,03,28,03,40,980.80
2023,03,28,03,41,980.80
2023,03,28,03,42,980.80
2023,03,28,03,43,980.80
2023,03,28,03,44,980.80
2023,03,28,03,45,980.80
2023,03,28,03,46,980.80
2023,03,28,03,47,976.62
2023,03,28,03,48,969.06
2023,03,28,03,49,969.46
2023,03,28,03,50,969.46
2023,03,28,03,51,969.46
2023,03,28,03,52,969.46
2023,03,28,03,53,969.46
2023,03,28,03,54,969.46
2023,03,28,03,55,969.46
2023,03,28,03,56,969.46
2023,03,28,03,57,969.46
2023,03,28,03,58,969.46
2023,03,28,03,59,969.46
2023,03,28,04,00,969.46
2023,03,28,04,01,969.46
2023,03,28,04,02,969.46
2023,03,28,04,03,969.46
2023,03,28,04,04,969.46
2023,03,28,04,05,969.46
2023,03,28,04,06,969.46
2023,03,28,04,07,967.98
2023,03,28,04,08,965.22
2023,03,28,04,09,965.22
2023,03,28,04,10,965.22
2023,03,28,04,11,965.22
2023,03,28,04,12,965.22
2023,03,28,04,13,965.22
2023,03,28,04,14,965.22
2023,03,28,04,15,964.99
2023,03,28,04,16,964.61
2023,03,28,04,17,964.61
2023,03,28,04,18,964.61
2023,03,28,04,19,964.61
2023,03,28,04,20,964.61
2023,03,28,04,21,963.16
2023,03,28,04,22,960.79
2023,03,28,04,23,960.79
2023,03,28,04,24,960.79
2023,03,28,04,25,960.79
2023,03,28,04,26,960.79
2023,03,28,04,27,960.79
2023,03,28,04,28,960.79
2023,03,28,04,29,960.79
2023,03,28,04,30,960.79
2023,03,28,04,31,960.79
2023,03,28,04,32,960.79
2023,03,28,04,33,960.79
2023,03,28,04,34,960.79
2023,03,28,04,35,960.79
2023,03,28,04,36,960.79
2023,03,28,04,37,961.18
2023,03,28,04,38,961.97
2023,03,28,04,39,961.97
2023,03,28,04,40,965.36
2023,03,28,04,41,971.66
2023,03,28,04,42,971.66
2023,03,28,04,43,971.66
2023,03,28,04,44,971.66
2023,03,28,04,45,971.66
2023,03,28,04,46,971.66
2023,03,28,04,47,971.66
2023,03,28,04,48,971.66
2023,03,28,04,49,971.66
2023,03,28,04,50,971.66
2023,03,28,04,51,973.99
2023,03,28,04,52,978.33
2023,03,28,04,53,978.33
2023,03,28,04,54,978.33
2023,03,28,04,55,978.33
2023,03,28,04,56,978.33
2023,03,28,04,57,978.33
2023,03,28,04,58,978.33
2023,03,28,04,59,978.17
2023,03,28,05,00,977.82
2023,03,28,05,01,977.82
2023,03,28,05,02,977.82
2023,03,28,05,03,977.82
2023,03,28,05,04,977.82
2023,03,28,05,05,977.82
2023,03,28,05,06,977.82
2023,03,28,05,07,978.08
2023,03,28,05,08,978.63
2023,03,28,05,09,979.48
2023,03,28,05,10,981.07
2023,03,28,05,11,981.07
2023,03,28,05,12,981.07
2023,03,28,05,13,981.07
2023,03,28,05,14,981.07
2023,03,28,05,15,981.04
2023,03,28,05,16,981.08
2023,03,28,05,17,981.31
2023,03,28,05,18,981.31
2023,03,28,05,19,981.31
2023,03,28,05,20,981.31
2023,03,28,05,21,981.46
2023,03,28,05,22,981.75
2023,03,28,05,23,982.33
2023,03,28,05,24,983.68
2023,03,28,05,25,983.68
2023,03,28,05,26,983.68
2023,03,28,05,27,983.68
2023,03,28,05,28,983.68
2023,03,28,05,29,983.68
2023,03,28,05,30,983.68
2023,03,28,05,31,983.68
2023,03,28,05,32,983.68
2023,03,28,05,33,985.47
2023,03,28,05,34,989.72
2023,03,28,05,35,989.91
2023,03,28,05,36,989.91
2023,03,28,05,37,988.24
2023,03,28,05,38,984.63
2023,03,28,05,39,984.63
2023,03,28,05,40,984.63
2023,03,28,05,41,984.63
2023,03,28,05,42,984.63
2023,03,28,05,43,984.63
2023,03,28,05,44,984.63
2023,03,28,05,45,984.63
2023,03,28,05,46,984.63
2023,03,28,05,47,984.63
2023,03,28,05,48,984.63
2023,03,28,05,49,984.17
2023,03,28,05,50,983.31
2023,03,28,05,51,983.05
2023,03,28,05,52,982.49
2023,03,28,05,53,983.41
2023,03,28,05,54,985.57
2023,03,28,05,55,985.57
2023,03,28,05,56,985.57
2023,03,28,05,57,985.57
2023,03,28,05,58,985.57
2023,03,28,05,59,985.57
2023,03,28,06,00,985.57
2023,03,28,06,01,985.57
2023,03,28,06,02,985.57
2023,03,28,06,03,985.57
2023,03,28,06,04,985.57
2023,03,28,06,05,985.57
2023,03,28,06,06,985.57
2023,03,28,06,07,985.57
2023,03,28,06,08,985.57
2023,03,28,06,09,985.57
2023,03,28,06,10,985.57
2023,03,28,06,11,985.57
2023,03,28,06,12,982.03
2023,03,28,06,13,973.76
2023,03,28,06,14,973.76
2023,03,28,06,15,973.76
2023,03,28,06,16,973.76
2023,03,28,06,17,973.76
2023,03,28,06,18,973.76
2023,03,28,06,19,973.76
2023,03,28,06,20,973.76
2023,03,28,06,21,973.76
2023,03,28,06,22,973.76
2023,03,28,06,23,973.76
2023,03,28,06,24,973.76
2023,03,28,06,25,973.76
2023,03,28,06,26,973.76
2023,03,28,06,27,973.76
2023,03,28,06,28,973.76
2023,03,28,06,29,973.76
2023,03,28,06,30,973.76
2023,03,28,06,31,973.76
2023,03,28,06,32,978.40
2023,03,28,06,33,989.23
2023,03,28,06,34,989.23
2023,03,28,06,35,989.23
2023,03,28,06,36,989.23
2023,03,28,06,37,989.23
2023,03,28,06,38,989.23
2023,03,28,06,39,989.23
2023,03,28,06,40,989.23
2023,03,28,06,41,989.23
2023,03,28,06,42,989.23
2023,03,28,06,43,989.23
2023,03,28,06,44,989.23
2023,03,28,06,45,989.23
2023,03,28,06,46,988.39
2023,03,28,06,47,986.83
2023,03,28,06,48,986.83
2023,03,28,06,49,986.83
2023,03,28,06,50,986.83
2023,03,28,06,51,986.83
2023,03,28,06,52,986.83
2023,03,28,06,53,986.83
2023,03,28,06,54,986.83
2023,03,28,06,55,986.83
2023,03,28,06,56,986.83
2023,03,28,06,57,986.83
2023,03,28,06,58,986.83
2023,03,28,06,59,986.83
2023,03,28,07,00,986.83
2023,03,28,07,01,986.83
2023,03,28,07,02,986.83
2023,03,28,07,03,986.83
2023,03,28,07,04,986.83
2023,03,28,07,05,986.83
2023,03,28,07,06,985.62
2023,03,28,07,07,982.80
2023,03,28,07,08,982.80
2023,03,28,07,09,982.80
2023,03,28,07,10,983.03
2023,03,28,07,11,983.58
2023,03,28,07,12,983.58
2023,03,28,07,13,982.93
2023,03,28,07,14,981.41
2023,03,28,07,15,981.41
2023,03,28,07,16,981.41
2023,03,28,07,17,981.41
2023,03,28,07,18,981.41
2023,03,28,07,19,981.41
2023,03,28,07,20,981.41
2023,03,28,07,21,981.41
2023,03,28,07,22,981.41
2023,03,28,07,23,981.41
2023,03,28,07,24,981.41
2023,03,28,07,25,981.41
2023,03,28,07,26,982.84
2023,03,28,07,27,985.77
2023,03,28,07,28,985.38
2023,03,28,07,29,985.30
2023,03,28,07,30,985.30
2023,03,28,07,31,985.30
2023,03,28,07,32,985.30
2023,03,28,07,33,985.30
2023,03,28,07,34,985.30
2023,03,28,07,35,985.30
2023,03,28,07,36,985.30
2023,03,28,07,37,985.30
2023,03,28,07,38,985.30
2023,03,28,07,39,985.30
2023,03,28,07,40,985.30
2023,03,28,07,41,985.30
2023,03,28,07,42,985.30
2023,03,28,07,43,985.30
2023,03,28,07,44,985.30
2023,03,28,07,45,985.30
2023,03,28,07,46,985.30
2023,03,28,07,47,985.30
2023,03,28,07,48,985.30
2023,03,28,07,49,985.30
2023,03,28,07,50,985.30
2023,03,28,07,51,985.30
2023,03,28,07,52,982.20
2023,03,28,07,53,974.98
2023,03,28,07,54,974.98
2023,03,28,07,55,974.98
2023,03,28,07,56,974.98
2023,03,28,07,57,974.98
2023,03,28,07,58,974.98
2023,03,28,07,59,974.98
2023,03,28,08,00,974.98
2023,03,28,08,01,974.98
2023,03,28,08,02,974.98
2023,03,28,08,03,974.98
2023,03,28,08,04,974.98
2023,03,28,08,05,974.98
2023,03,28,08,06,974.98
2023,03,28,08,07,974.98
2023,03,28,08,08,974.98
2023,03,28,08,09,974.98
2023,03,28,08,10,974.98
2023,03,28,08,11,974.98
2023,03,28,08,12,974.98
2023,03,28,08,13,974.98
2023,03,28,08,14,974.98
2023,03,28,08,15,974.98
2023,03,28,08,16,974.98
2023,03,28,08,17,974.98
2023,03,28,08,18,974.98
2023,03,28,08,19,974.98
2023,03,28,08,20,974.98
2023,03,28,08,21,974.98
2023,03,28,08,22,974.98
2023,03,28,08,23,974.98
2023,03,28,08,24,974.98
2023,03,28,08,25,974.98
2023,03,28,08,26,974.98
2023,03,28,08,27,974.98
2023,03,28,08,28,974.98
2023,03,28,08,29,974.98
2023,03,28,08,30,974.98
2023,03,28,08,31,974.98
2023,03,28,08,32,974.98
2023,03,28,08,33,974.98
2023,03,28,08,34,974.98
2023,03,28,08,35,974.98
2023,03,28,08,36,974.98
2023,03,28,08,37,974.98
2023,03,28,08,38,974.98
2023,03,28,08,39,974.98
2023,03,28,08,40,974.98
2023,03,28,08,41,974.98
2023,03,28,08,42,974.98
2023,03,28,08,43,974.98
2023,03,28,08,44,974.98
2023,03,28,08,45,974.98
2023,03,28,08,46,974.98
2023,03,28,08,47,974.98
2023,03,28,08,48,974.98
2023,03,28,08,49,974.98
2023,03,28,08,50,974.98
2023,03,28,08,51,974.98
2023,03,28,08,52,974.98
2023,03,28,08,53,974.98
2023,03,28,08,54,974.98
2023,03,28,08,55,974.98
2023,03,28,08,56,974.98
2023,03,28,08,57,974.98
2023,03,28,08,58,974.98
2023,03,28,08,59,974.98
2023,03,28,09,00,974.98
2023,03,28,09,01,974.98
2023,03,28,09,02,958.72
2023,03,28,09,03,920.79
2023,03,28,09,04,920.79
2023,03,28,09,05,920.79
2023,03,28,09,06,920.79
2023,03,28,09,07,920.79
2023,03,28,09,08,920.79
2023,03,28,09,09,920.79
2023,03,28,09,10,920.79
2023,03,28,09,11,920.79
2023,03,28,09,12,920.79
2023,03,28,09,13,920.79
2023,03,28,09,14,920.79
2023,03,28,09,15,920.79
2023,03,28,09,16,920.79
2023,03,28,09,17,920.79
2023,03,28,09,18,920.79
2023,03,28,09,19,920.79
2023,03,28,09,20,920.79
2023,03,28,09,21,920.79
2023,03,28,09,22,920.79
2023,03,28,09,23,920.79
2023,03,28,09,24,920.79
2023,03,28,09,25,920.79
2023,03,28,09,26,920.79
2023,03,28,09,27,920.79
2023,03,28,09,28,920.79
2023,03,28,09,29,920.79
2023,03,28,09,30,920.79
2023,03,28,09,31,920.79
2023,03,28,09,32,920.79
2023,03,28,09,33,920.79
2023,03,28,09,34,920.79
2023,03,28,09,35,920.79
2023,03,28,09,36,920.79
2023,03,28,09,37,920.79
2023,03,28,09,38,920.79
2023,03,28,09,39,920.79
2023,03,28,12,03,941.72
2023,03,28,12,04,941.72
2023,03,28,12,05,941.72
2023,03,28,12,06,941.72
2023,03,28,12,07,941.72
2023,03,28,12,08,941.72
2023,03,28,12,09,941.72
2023,03,28,12,10,941.72
2023,03,28,12,11,941.72
2023,03,28,12,12,941.72
2023,03,28,12,13,941.72
2023,03,28,12,14,941.72
2023,03,28,12,15,941.72
2023,03,28,12,16,941.72
2023,03,28,12,17,941.72
2023,03,28,12,18,941.72
2023,03,28,12,19,941.72
2023,03,28,12,20,941.72
2023,03,28,12,21,941.72
2023,03,28,12,22,941.72
2023,03,28,12,23,941.72
2023,03,28,12,24,941.72
2023,03,28,12,25,941.72
2023,03,28,12,26,941.72
2023,03,28,12,27,941.72
2023,03,28,12,28,941.72
2023,03,28,12,29,941.72
2023,03,28,12,30,941.72
2023,03,28,12,31,941.72
2023,03,28,12,32,941.72
2023,03,28,12,33,941.72
2023,03,28,12,34,941.72
2023,03,28,12,35,941.72
2023,03,28,12,36,941.72
2023,03,28,12,37,941.72
2023,03,28,12,38,941.72
2023,03,28,12,39,941.72
2023,03,28,12,40,941.72
2023,03,28,12,41,941.72
2023,03,28,12,42,941.72
2023,03,28,12,43,941.72
2023,03,28,12,44,941.72
2023,03,28,12,45,941.72
2023,03,28,12,46,941.72
2023,03,28,12,47,941.72
2023,03,28,12,48,947.34
2023,03,28,12,49,968.41
2023,03,28,12,50,968.41
2023,03,28,12,51,968.33
2023,03,28,12,52,968.03
2023,03,28,12,53,967.91
2023,03,28,12,54,967.55
2023,03,28,12,55,967.53
2023,03,28,12,56,967.49
2023,03,28,12,57,967.24
2023,03,28,12,58,966.77
2023,03,28,12,59,966.43
2023,03,28,13,00,966.44
2023,03,28,13,01,966.71
2023,03,28,13,02,967.09
2023,03,28,13,03,967.09
2023,03,28,13,04,967.09
2023,03,28,13,05,966.86
2023,03,28,13,06,966.00
2023,03,28,13,07,965.53
2023,03,28,13,08,965.54
2023,03,28,13,09,965.60
2023,03,28,13,10,965.67
2023,03,28,13,11,965.49
2023,03,28,13,12,965.56
2023,03,28,13,13,965.62
2023,03,28,13,14,965.35
2023,03,28,13,15,965.88
2023,03,28,13,16,966.10
2023,03,28,13,17,966.10
2023,03,28,13,18,966.02
2023,03,28,13,19,965.69
2023,03,28,13,20,965.36
2023,03,28,13,21,965.41
2023,03,28,13,22,965.56
2023,03,28,13,23,965.56
2023,03,28,13,24,965.86
2023,03,28,13,25,966.71
2023,03,28,13,26,966.59
2023,03,28,13,27,966.87
2023,03,28,13,28,967.24
2023,03,28,13,29,967.42
2023,03,28,13,30,967.09
2023,03,28,13,31,967.28
2023,03,28,13,32,967.84
2023,03,28,13,33,967.85
2023,03,28,13,34,968.03
2023,03,28,13,35,968.03
2023,03,28,13,36,968.03
2023,03,28,13,37,968.03
2023,03,28,13,38,971.57
2023,03,28,13,39,982.19
2023,03,28,13,40,978.99
2023,03,28,13,41,969.39
2023,03,28,13,42,969.39
2023,03,28,13,43,969.39
2023,03,28,13,44,969.39
2023,03,28,13,45,969.39
2023,03,28,13,46,969.39
2023,03,28,13,47,969.39
2023,03,28,13,48,969.39
2023,03,28,13,49,969.39
2023,03,28,13,50,969.39
2023,03,28,13,51,969.39
2023,03,28,13,52,969.39
2023,03,28,13,53,972.59
2023,03,28,13,54,982.20
2023,03,28,13,55,982.22
2023,03,28,13,56,982.22
2023,03,28,13,57,982.22
2023,03,28,13,58,982.22
2023,03,28,13,59,982.22
2023,03,28,14,00,982.22
2023,03,28,14,01,982.22
2023,03,28,14,02,982.22
2023,03,28,14,03,982.22
2023,03,28,14,04,982.22
2023,03,28,14,05,982.22
2023,03,28,14,06,982.22
2023,03,28,14,07,982.22
2023,03,28,14,08,982.22
2023,03,28,14,09,982.22
2023,03,28,14,10,982.22
2023,03,28,14,11,978.92
2023,03,28,14,12,969.02
2023,03,28,14,13,969.09
2023,03,28,14,14,969.32
2023,03,28,14,15,969.32
2023,03,28,14,16,969.32
2023,03,28,14,17,969.32
2023,03,28,14,18,969.13
2023,03,28,14,19,968.60
2023,03,28,14,20,968.72
2023,03,28,14,21,969.10
2023,03,28,14,22,969.01
2023,03,28,14,23,968.95
2023,03,28,14,24,968.88
2023,03,28,14,25,968.99
2023,03,28,14,26,969.02
2023,03,28,14,27,969.02
2023,03,28,14,28,972.54
2023,03,28,14,29,983.10
2023,03,28,14,30,983.10
2023,03,28,14,31,983.10
2023,03,28,14,32,983.10
2023,03,28,14,33,983.10
2023,03,28,14,34,983.10
2023,03,28,14,35,983.10
2023,03,28,14,36,983.10
2023,03,28,14,37,985.47
2023,03,28,14,38,994.38
2023,03,28,14,39,994.38
2023,03,28,14,40,994.38
2023,03,28,14,41,994.38
2023,03,28,14,42,994.38
2023,03,28,14,43,994.38
2023,03,28,14,44,994.38
2023,03,28,14,45,994.38
2023,03,28,14,46,994.38
2023,03,28,14,47,994.38
2023,03,28,14,48,994.38
2023,03,28,14,49,994.38
2023,03,28,14,50,994.38
2023,03,28,14,51,994.38
2023,03,28,14,52,994.38
2023,03,28,14,53,994.38
2023,03,28,14,54,994.38
2023,03,28,14,55,1007.38
2023,03,28,14,56,1059.40
2023,03,28,14,57,1059.40
2023,03,28,14,58,1059.40
2023,03,28,14,59,1059.40
2023,03,28,15,00,1059.40
2023,03,28,15,01,1059.40
2023,03,28,15,02,1059.40
2023,03,28,15,03,1059.40
2023,03,28,15,04,1059.40
2023,03,28,15,05,1059.40
2023,03,28,15,06,1059.40
2023,03,28,15,07,1059.40
2023,03,28,15,08,1059.40
2023,03,28,15,09,1059.40
2023,03,28,15,10,1059.40
2023,03,28,15,11,1059.40
2023,03,28,15,12,1059.40
2023,03,28,15,13,1059.40
2023,03,28,15,14,1059.40
2023,03,28,15,15,1059.40
2023,03,28,15,16,1059.40
2023,03,28,15,17,1059.40
2023,03,28,15,18,1059.40
2023,03,28,15,19,1059.40
2023,03,28,15,20,1059.40
2023,03,28,15,21,1059.40
2023,03,28,15,22,1059.40
2023,03,28,15,23,1059.40
2023,03,28,15,24,1059.40
2023,03,28,15,25,1059.40
2023,03,28,15,26,1059.40
2023,03,28,15,27,1059.40
2023,03,28,15,28,1059.40
2023,03,28,15,29,1059.40
2023,03,28,15,30,1059.40
2023,03,28,15,31,1059.40
2023,03,28,15,32,1059.40
2023,03,28,15,33,1059.40
2023,03,28,15,34,1059.40
2023,03,28,15,35,1059.40
2023,03,28,15,36,1059.40
2023,03,28,15,37,1059.40
2023,03,28,15,38,1059.40
2023,03,28,15,39,1059.40
2023,03,28,15,40,1059.40
2023,03,28,15,41,1059.40
2023,03,28,15,42,1059.40
2023,03,28,15,43,1059.40
2023,03,28,15,44,1059.40
2023,03,28,15,45,1059.40
2023,03,28,15,46,1059.40
2023,03,28,15,47,1059.40
2023,03,28,15,48,1059.40
2023,03,28,15,49,1059.40
2023,03,28,15,50,1059.40
2023,03,28,15,51,1059.40
2023,03,28,15,52,1059.40
2023,03,28,15,53,1059.40
2023,03,28,15,54,1059.40
2023,03,28,15,55,1059.40
2023,03,28,15,56,1059.40
2023,03,28,15,57,1059.40
2023,03,28,15,58,1059.40
2023,03,28,15,59,1059.40
2023,03,28,16,00,1059.40
2023,03,28,16,01,1059.40
2023,03,28,16,02,1059.40
2023,03,28,16,03,1059.40
2023,03,28,16,04,1059.40
2023,03,28,16,05,1059.40
2023,03,28,16,06,1059.40
2023,03,28,16,12,906.84
2023,03,28,16,13,906.84
2023,03,28,16,14,906.84
2023,03,28,16,15,906.84
2023,03,28,16,16,906.84
2023,03,28,16,17,906.84
2023,03,28,16,18,906.84
2023,03,28,16,19,906.84
2023,03,28,16,20,906.84
2023,03,28,16,21,922.78
2023,03,28,16,22,982.53
2023,03,28,16,23,982.53
2023,03,28,16,24,982.53
2023,03,28,16,25,982.53
2023,03,28,16,26,982.53
2023,03,28,16,27,982.53
2023,03,28,16,28,982.53
2023,03,28,16,29,982.53
2023,03,28,16,30,982.53
2023,03,28,16,31,982.53
2023,03,28,16,32,982.53
2023,03,28,16,33,982.53
2023,03,28,16,34,982.53
2023,03,28,16,35,982.53
2023,03,28,16,36,982.53
2023,03,28,16,37,982.53
2023,03,28,16,38,982.53
2023,03,28,16,39,982.53
2023,03,28,16,40,982.53
2023,03,28,16,41,982.53
2023,03,28,16,42,982.53
2023,03,28,16,43,982.53
2023,03,28,16,44,982.53
2023,03,28,16,45,982.53
2023,03,28,16,46,982.53
2023,03,28,16,47,982.53
2023,03,28,16,48,982.53
2023,03,28,16,49,982.53
2023,03,28,16,50,982.53
2023,03,28,16,51,982.53
2023,03,28,16,52,982.53
2023,03,28,16,53,982.53
2023,03,28,16,54,982.53
2023,03,28,16,55,982.53
2023,03,28,16,56,982.53
2023,03,28,16,57,982.53
2023,03,28,16,58,982.53
2023,03,28,16,59,982.53
2023,03,28,17,00,982.53
2023,03,28,17,01,982.53
2023,03,28,17,02,982.53
2023,03,28,17,03,982.53
2023,03,28,17,04,982.53
2023,03,28,17,05,982.53
2023,03,28,17,06,982.53
2023,03,28,17,07,982.53
2023,03,28,17,08,982.53
2023,03,28,17,09,982.53
2023,03,28,17,10,982.53
2023,03,28,17,11,982.53
2023,03,28,17,12,982.53
2023,03,28,17,13,982.53
2023,03,28,17,14,982.53
2023,03,28,17,15,982.53
2023,03,28,17,16,982.53
2023,03,28,17,17,982.53
2023,03,28,17,18,982.53
2023,03,28,17,19,982.53
2023,03,28,17,20,982.53
2023,03,28,17,21,982.53
2023,03,28,17,22,982.53
2023,03,28,17,23,982.53
2023,03,28,17,24,982.53
2023,03,28,17,25,982.53
2023,03,28,17,26,982.53
2023,03,28,17,27,982.53
2023,03,28,17,28,982.53
2023,03,28,17,29,982.53
2023,03,28,17,30,982.53
2023,03,28,17,31,982.53
2023,03,28,17,32,982.53
2023,03,28,17,33,982.53
2023,03,28,17,34,982.53
2023,03,28,17,35,982.53
2023,03,28,17,36,982.53
2023,03,28,17,37,982.53
2023,03,28,17,38,982.53
2023,03,28,17,39,982.53
2023,03,28,17,40,982.53
2023,03,28,17,41,982.53
2023,03,28,17,42,982.53
2023,03,28,17,43,982.53
2023,03,28,17,44,982.53
2023,03,28,17,45,982.53
2023,03,28,17,46,982.53
2023,03,28,17,47,982.53
2023,03,28,17,48,982.53
2023,03,28,17,49,982.53
2023,03,28,17,50,982.53
2023,03,28,17,51,982.53
2023,03,28,17,52,982.53
2023,03,28,17,53,982.53
2023,03,28,17,54,982.53
2023,03,28,17,55,982.53
2023,03,28,17,56,982.53
2023,03,28,17,57,982.53
2023,03,28,17,58,982.53
2023,03,28,17,59,982.53
2023,03,28,18,00,982.53
2023,03,28,18,01,982.53
2023,03,28,18,02,982.53
2023,03,28,18,03,982.53
2023,03,28,18,04,982.53
2023,03,28,18,05,982.53
2023,03,28,18,06,982.53
2023,03,28,18,07,982.53
2023,03,28,18,08,982.53
2023,03,28,18,09,982.53
2023,03,28,18,10,982.53
2023,03,28,18,11,982.53
2023,03,28,18,12,982.53
2023,03,28,18,13,982.53
2023,03,28,18,14,982.53
2023,03,28,18,15,982.53
2023,03,28,18,16,982.53
2023,03,28,18,17,982.53
2023,03,28,18,18,982.53
2023,03,28,18,19,982.53
2023,03,28,18,20,982.53
2023,03,28,18,21,982.53
2023,03,28,18,22,982.53
2023,03,28,18,23,982.53
2023,03,28,18,24,982.53
2023,03,28,18,25,982.53
2023,03,28,18,26,982.53
2023,03,28,18,27,982.53
2023,03,28,18,28,982.53
2023,03,28,18,29,982.53
2023,03,28,18,30,982.53
2023,03,28,18,31,982.53
2023,03,28,18,32,982.53
2023,03,28,18,33,982.53
2023,03,28,18,34,982.53
2023,03,28,18,35,982.53
2023,03,28,18,36,982.53
2023,03,28,18,37,982.53
2023,03,28,18,38,982.53
2023,03,28,18,39,982.53
2023,03,28,18,40,982.53
2023,03,28,18,41,982.53
2023,03,28,18,42,982.53
2023,03,28,18,43,982.53
2023,03,28,18,44,982.53
2023,03,28,18,45,982.53
2023,03,28,18,46,982.53
2023,03,28,18,47,982.53
2023,03,28,18,48,982.53
2023,03,28,18,49,982.53
2023,03,28,18,50,982.53
2023,03,28,18,51,982.53
2023,03,28,18,52,982.53
2023,03,28,18,53,982.53
2023,03,28,18,54,982.53
2023,03,28,18,55,982.53
2023,03,28,18,56,982.53
2023,03,28,18,57,982.53
2023,03,28,18,58,982.53
2023,03,28,18,59,982.53
2023,03,28,19,00,982.53
2023,03,28,19,01,982.53
2023,03,28,19,02,982.53
2023,03,28,19,03,982.53
2023,03,28,19,04,982.53